Vorticity
nan nan nan nan nan nan nan nan nan nan nan nan nan nan nan nan nan nan nan nan nan nan nan nan nan nan nan nan nan nan nan nan nan nan nan nan nan nan nan nan nan nan nan
nan 8 7 7 7 7 8 8 7 6 6 5 5 5 6 8 8 8 10 5 3 11 16 18 12 6 3 3 4 4 4 4 4 2 5 5 4 2 3 3 3 5 nan
nan 7 7 7 7 8 7 7 7 6 6 5 5 7 7 6 5 7 7 7 6 -0 10 20 15 10 9 6 4 5 5 2 0 3 7 3 1 2 4 3 3 5 nan
nan 6 7 8 7 7 6 6 6 6 6 6 6 6 7 6 5 6 8 8 8 6 2 5 11 11 10 9 7 5 4 3 3 5 5 7 3 3 5 3 4 5 nan
nan 6 7 9 7 6 8 7 7 7 7 7 6 6 6 8 8 7 6 7 7 6 5 3 -0 5 8 8 8 7 6 6 6 7 7 6 7 8 7 4 4 5 nan
nan 5 8 8 6 6 8 8 7 6 6 8 8 7 8 9 8 8 6 5 6 6 5 3 8 4 2 6 7 8 7 7 7 7 7 7 7 7 6 6 6 5 nan
nan 6 7 8 7 8 8 8 6 6 6 6 9 10 8 10 8 7 6 8 7 4 6 10 7 6 8 5 6 8 10 9 9 8 7 7 6 6 7 7 6 5 nan
nan 8 8 8 7 8 8 6 6 5 6 6 6 9 12 11 10 9 7 8 7 6 9 8 6 6 5 4 9 9 12 11 10 8 7 6 6 8 8 7 7 7 nan
nan 9 7 8 8 6 7 7 7 7 6 6 7 5 7 6 13 13 8 7 8 4 8 11 8 7 8 7 8 7 5 9 10 10 10 9 8 7 8 7 6 7 nan
nan 9 8 8 6 7 8 7 8 6 7 7 8 9 5 9 8 10 11 7 4 6 8 9 10 10 7 8 8 11 5 8 8 8 8 7 6 6 6 6 6 6 nan
nan 9 8 7 6 7 8 8 8 5 4 8 8 9 9 8 6 6 5 9 8 7 8 8 8 9 11 9 9 10 4 3 4 4 6 6 7 7 7 8 8 8 nan
nan 10 9 8 8 8 8 8 8 6 6 5 7 7 8 8 9 9 8 6 7 10 8 8 8 9 10 10 8 7 3 3 5 5 7 8 9 9 10 10 10 10 nan
nan 12 10 9 8 9 8 6 8 10 7 8 7 7 8 8 8 8 9 9 8 9 10 8 7 7 10 9 9 6 3 8 5 5 6 8 9 9 9 10 11 10 nan
nan 11 10 10 10 7 6 7 8 10 8 9 8 7 8 9 8 8 8 9 9 9 8 8 10 8 9 6 10 7 6 6 6 4 7 9 9 9 9 9 9 8 nan
nan 10 9 8 9 7 6 9 7 8 10 8 9 8 7 8 8 8 8 9 8 8 8 9 8 11 9 8 5 4 6 2 5 10 10 9 9 9 9 9 8 9 nan
nan 10 8 7 7 8 8 6 8 10 7 7 8 9 7 7 8 8 8 9 8 8 8 8 9 8 9 8 6 7 8 11 11 11 10 8 7 8 9 10 10 9 nan
nan 10 9 7 7 8 8 6 7 11 7 6 10 7 6 8 8 8 8 7 8 10 9 4 7 10 8 7 7 8 10 11 13 9 10 8 7 9 11 11 11 11 nan
nan 11 9 9 10 7 7 7 12 4 5 10 11 7 7 7 7 7 7 8 8 8 8 8 8 9 10 9 8 10 10 9 9 8 6 9 11 11 12 11 10 9 nan
nan 12 12 10 11 11 9 7 7 6 7 10 10 9 9 7 7 7 8 8 9 10 9 9 8 9 11 10 10 9 9 11 10 12 12 10 11 9 9 8 9 9 nan
nan 9 14 16 11 9 9 8 1 5 7 10 10 11 11 10 8 8 9 8 8 8 9 9 9 9 10 9 10 11 9 9 9 11 16 17 13 12 14 12 10 10 nan
nan 11 11 10 11 7 9 7 3 5 7 10 11 13 13 11 10 10 10 10 9 8 8 9 9 9 9 9 8 9 11 8 9 11 11 10 11 15 18 19 20 12 nan
nan 11 8 9 6 5 7 5 8 7 8 10 10 12 15 14 11 9 9 7 7 10 10 7 7 8 8 9 9 8 8 8 9 9 8 10 10 10 12 11 11 13 nan
nan 10 8 5 2 8 7 4 6 5 9 9 10 10 11 13 10 13 11 5 8 10 7 7 8 8 9 9 9 10 8 7 8 8 10 9 10 11 11 12 4 5 nan
nan 5 9 8 7 8 7 10 7 7 9 9 10 10 10 10 12 16 9 10 9 10 10 10 8 9 12 12 9 9 10 11 11 8 9 10 11 11 10 10 12 15 nan
nan 5 7 12 13 13 10 6 4 9 10 11 11 11 12 12 16 17 9 9 8 9 11 7 6 9 12 11 7 8 11 10 9 9 11 11 8 9 11 13 20 12 nan
nan nan nan nan nan nan nan nan nan nan nan nan nan nan nan nan nan nan nan nan nan nan nan nan nan nan nan nan nan nan nan nan nan nan nan nan nan nan nan nan nan nan nan
CAPE
93 153 136 93 34 0 0 0 0 0 0 0 0 0 0 0 0 0 0 0 0 0 4 23 36 9 5 0 0 0 0 0 11 3 0 3 4 1 0 0 0 0 0
172 314 177 50 0 0 0 0 0 0 0 0 0 0 0 0 0 0 0 0 0 0 0 1 72 31 1 0 0 0 0 0 9 7 4 7 1 0 0 0 0 0 0
361 223 96 7 0 0 0 0 0 0 0 0 0 0 0 0 0 0 0 0 0 0 0 0 14 6 19 12 0 0 10 13 7 12 19 12 5 2 0 1 1 1 1
334 164 32 0 0 0 0 0 0 0 0 0 0 0 0 0 0 0 0 0 0 0 1 0 0 0 0 0 4 9 18 4 11 18 20 28 25 8 8 2 4 0 1
90 59 15 0 0 0 0 0 0 0 0 0 0 0 0 0 0 0 0 0 0 0 0 0 0 0 0 0 0 0 0 1 3 5 12 17 23 26 20 18 4 2 6
31 37 0 0 0 0 0 0 0 0 0 0 0 0 0 0 0 0 0 0 0 0 0 0 0 0 0 0 0 0 0 0 0 3 7 7 9 12 13 12 13 14 16
79 21 0 0 0 0 0 0 0 0 0 0 0 0 0 0 0 0 0 0 0 0 0 0 0 0 0 0 0 0 0 0 0 0 0 1 3 4 5 12 23 38 51
14 0 0 0 0 0 0 0 0 0 0 0 0 0 0 0 0 0 0 0 0 0 0 0 0 0 0 0 0 0 0 0 0 0 0 0 0 1 6 17 23 34 47
0 0 0 0 0 0 0 0 0 0 0 0 0 0 0 0 0 0 0 0 0 0 0 0 0 0 0 0 0 0 0 0 0 0 2 11 19 25 31 40 52 56 56
0 0 0 0 0 0 0 0 0 0 0 0 0 0 0 0 0 0 0 0 2 0 0 1 0 2 3 4 1 0 0 0 0 0 0 2 14 27 41 57 77 86 90
0 0 0 0 0 0 0 0 0 0 0 0 0 0 0 0 0 0 0 0 0 1 1 2 2 7 10 7 4 1 0 0 0 0 0 0 3 12 25 39 50 59 65
0 0 0 0 0 0 0 0 0 0 0 0 0 0 0 0 0 0 0 0 1 0 2 5 8 13 16 10 0 0 0 0 0 0 0 0 0 0 3 7 15 25 34
0 0 0 0 0 0 0 0 0 0 0 0 0 0 0 0 0 0 0 0 0 0 5 15 18 18 16 21 27 0 0 0 0 0 0 0 0 1 3 7 14 23 33
0 0 0 0 0 0 0 0 0 0 0 0 0 0 0 0 2 0 0 0 0 1 5 14 17 23 27 30 9 0 0 0 0 0 0 0 0 0 0 3 10 19 29
0 0 0 0 0 0 0 0 0 0 0 0 0 0 0 0 1 1 2 1 8 20 7 9 13 18 28 34 31 13 2 1 0 0 0 0 0 0 0 6 13 19 30
0 0 0 0 0 0 0 0 0 0 0 2 0 0 0 0 1 5 5 7 13 22 29 22 14 20 30 23 15 1 1 0 0 0 0 0 0 0 2 5 10 14 18
0 0 0 0 0 0 0 0 0 0 10 0 2 0 0 0 3 7 13 18 26 35 39 33 17 17 24 18 8 6 2 0 0 0 0 0 0 0 3 4 4 6 9
0 0 0 0 0 0 0 0 0 0 2 5 0 3 5 1 10 18 27 40 39 43 39 26 19 18 26 12 7 7 1 0 0 0 0 0 0 0 0 1 2 4 4
0 0 0 0 0 0 0 0 2 16 2 10 2 5 10 23 35 39 41 51 44 30 35 37 20 24 14 6 9 7 3 0 0 0 0 1 0 0 0 0 0 0 0
0 0 0 0 0 0 0 0 5 4 0 10 6 8 17 25 35 42 38 50 44 41 41 34 21 16 7 4 7 4 1 0 0 0 0 1 0 0 0 0 0 0 0
0 0 0 0 0 0 0 0 9 0 8 10 9 14 15 6 1 7 13 28 42 41 36 27 21 11 7 9 9 4 0 0 0 1 0 5 11 10 23 24 13 14 2
0 0 0 0 0 0 0 0 0 0 14 5 5 8 9 0 0 0 0 0 0 19 31 37 18 12 7 7 10 3 0 1 0 2 1 2 10 9 19 31 17 0 0
0 0 0 0 0 0 0 0 0 1 3 3 3 2 1 2 4 12 5 0 0 0 0 6 8 10 8 8 8 0 1 4 4 3 2 2 7 9 17 20 25 5 0
0 0 0 0 6 2 0 0 0 0 0 0 0 0 1 4 14 21 11 32 14 11 0 0 0 0 2 5 1 0 4 7 7 9 7 5 7 11 25 32 15 24 1
10 9 1 0 0 0 0 0 0 0 0 0 0 0 0 0 1 0 1 29 21 21 1 0 0 0 0 0 0 0 8 17 19 5 6 9 11 10 18 22 32 5 18
0 0 7 7 3 0 0 0 0 0 2 5 3 2 0 0 0 0 0 2 36 26 35 8 0 0 0 0 0 2 8 18 22 12 8 11 13 13 16 12 18 32 51